Flag for U.S.A. Weather past 2 weeks in Breckenridge, Colorado, U.S.A.

Now
34 °F

Sunny.


Feels Like: 26 °F
Forecast: 33 / 57 °F
Wind: 9 mph from Southwest

Location: Copper Mountain - Red Cliff Pass

Current Time: Mar 28, 2015 at 8:34:48 AM

Latest Report: Mar 28, 2015 at 7:55 AM


Visibility: 10 mi

Pressure: 30.44 "Hg

Humidity: 56%

Dew point: 19 °F

Location of BreckenridgeLocation

Historic Weather in Breckenridge — Graph

°F

Breckenridge temperature yesterday

Maximum temperature yesterday: 41 °F (at 2:35 PM)
Minimum temperature yesterday: 27 °F (at 6:25 AM)
Average temperature yesterday: 34 °F

Past Weeks' High & Low Weather Summary

 TemperatureHumidityPressure
High54 °F (Mar 15, 2:15 PM)87% (Mar 13, 9:55 AM)30.62 "Hg (Mar 13, 9:55 AM)
Low14 °F (Mar 26, 3:15 AM)4% (Mar 15, 9:15 AM)30.01 "Hg (Mar 24, 4:35 AM)
Average32 °F51%30.33 "Hg
* Reported Mar 13 7:15 AM — Mar 28 7:35 AM, Breckenridge, Weather by CustomWeather, © 2015

Note: Actual official high and low records may vary slightly from our data, if they occured in-between our weather recording intervals... More about our weather records

Advertising

Breckenridge weather history for previous 24 hours

 ConditionsComfort  
Time TempWeatherWind HumidityBarometerVisibility
7:35 AM
Sat, Mar 28
34 °FClear.13 mph56%30.44 "Hg10 mi
7:15 AM34 °FClear.12 mph60%30.43 "Hg10 mi
6:55 AM34 °FClear.10 mph60%30.43 "Hg10 mi
6:25 AM34 °FClear.6 mph60%30.43 "Hg10 mi
6:15 AM34 °FClear.7 mph60%30.42 "Hg10 mi
5:55 AM32 °FClear.7 mph60%30.42 "Hg10 mi
5:35 AM34 °FClear.5 mph60%30.42 "Hg10 mi
5:15 AM34 °FPassing clouds.6 mph60%30.42 "Hg10 mi
4:55 AM34 °FPassing clouds.3 mph60%30.43 "Hg10 mi
4:35 AM34 °FPassing clouds.3 mph60%30.43 "Hg10 mi
4:15 AM34 °FPassing clouds.10 mph60%30.43 "Hg10 mi
3:55 AM34 °FPassing clouds.10 mph60%30.43 "Hg10 mi
3:35 AM34 °FPassing clouds.10 mph60%30.43 "Hg10 mi
3:15 AM34 °FPassing clouds.9 mph60%30.43 "Hg10 mi
2:55 AM34 °FPassing clouds.12 mph60%30.44 "Hg10 mi
2:35 AM34 °FPassing clouds.10 mph56%30.44 "Hg10 mi
2:15 AM34 °FClear.8 mph56%30.44 "Hg10 mi
1:55 AM34 °FPassing clouds.7 mph56%30.44 "Hg10 mi
1:35 AM34 °FPartly cloudy.5 mph56%30.45 "Hg10 mi
1:15 AM34 °FPassing clouds.3 mph56%30.45 "Hg10 mi
12:55 AM34 °FClear.9 mph56%30.45 "Hg10 mi
12:35 AM34 °FClear.18 mph56%30.45 "Hg10 mi
12:15 AM34 °FClear.15 mph56%30.46 "Hg10 mi
11:55 PM
Fri, Mar 27
34 °FClear.15 mph51%30.46 "Hg10 mi
11:35 PM34 °FClear.16 mph51%30.46 "Hg10 mi
11:15 PM36 °FClear.13 mph52%30.46 "Hg10 mi
10:55 PM34 °FPassing clouds.18 mph56%30.46 "Hg10 mi
10:35 PM34 °FPassing clouds.16 mph56%30.46 "Hg10 mi
9:35 PM34 °FClear.9 mph51%30.47 "Hg10 mi
9:15 PM34 °FClear.10 mph56%30.47 "Hg10 mi
8:55 PM34 °FClear.7 mph51%30.46 "Hg10 mi
8:35 PM36 °FClear.16 mph52%30.46 "Hg10 mi
8:15 PM36 °FSunny.14 mph48%30.45 "Hg10 mi
7:55 PM36 °FSunny.17 mph48%30.45 "Hg10 mi
7:35 PM36 °FSunny.20 mph52%30.44 "Hg10 mi
7:15 PM37 °FSunny.22 mph48%30.44 "Hg10 mi
6:55 PM37 °FSunny.23 mph45%30.44 "Hg10 mi
6:35 PM37 °FSunny.17 mph48%30.44 "Hg10 mi
6:15 PM37 °FScattered clouds.20 mph52%30.44 "Hg10 mi
5:55 PM39 °FScattered clouds.21 mph45%30.43 "Hg10 mi
5:35 PM41 °FSunny.23 mph42%30.42 "Hg10 mi
5:15 PM37 °FSunny.20 mph52%30.43 "Hg10 mi
4:55 PM37 °FSunny.28 mph52%30.42 "Hg10 mi
4:35 PM37 °FScattered clouds.17 mph56%30.42 "Hg10 mi
4:15 PM37 °FScattered clouds.23 mph56%30.42 "Hg10 mi
3:55 PM37 °FScattered clouds.22 mph56%30.42 "Hg10 mi
3:15 PM41 °FBroken clouds.16 mph49%30.43 "Hg10 mi
2:55 PM41 °FScattered clouds.24 mph45%30.42 "Hg10 mi
2:35 PM41 °FScattered clouds.21 mph49%30.42 "Hg10 mi
2:15 PM39 °FScattered clouds.21 mph52%30.43 "Hg10 mi
1:55 PM39 °FScattered clouds.8 mph52%30.44 "Hg10 mi
1:35 PM37 °FSunny.23 mph56%30.43 "Hg10 mi
1:15 PM37 °FScattered clouds.23 mph56%30.44 "Hg7 mi
12:55 PM37 °FScattered clouds.22 mph60%30.44 "Hg10 mi
12:35 PM36 °FScattered clouds.17 mph60%30.45 "Hg10 mi
12:15 PM36 °FPartly sunny.20 mph60%30.45 "Hg10 mi
11:55 AM34 °FPartly sunny.21 mph60%30.45 "Hg10 mi
11:35 AM34 °FPartly sunny.21 mph60%30.44 "Hg10 mi
11:15 AM34 °FScattered clouds.25 mph60%30.44 "Hg10 mi
10:55 AM34 °FScattered clouds.14 mph60%30.45 "Hg10 mi
10:35 AM34 °FScattered clouds.15 mph65%30.45 "Hg10 mi
10:15 AM34 °FPartly sunny.16 mph65%30.45 "Hg10 mi
9:55 AM32 °FScattered clouds.13 mph69%30.45 "Hg10 mi
9:35 AM30 °FScattered clouds.10 mph75%30.44 "Hg10 mi
9:15 AM30 °FBroken clouds.7 mph69%30.44 "Hg10 mi
8:55 AM28 °FBroken clouds.6 mph74%30.44 "Hg10 mi
8:35 AM27 °FPartly sunny.8 mph80%30.43 "Hg10 mi
8:15 AM27 °FLow clouds.9 mph80%30.43 "Hg10 mi
Weather by CustomWeather, © 2015

See weather overviewHow to use our weather pages